Starlink 11676

operational
NORAD ID: 63757 Int'l Des: 2025-089 Owner: SPXS Country: US Constellation: starlink
LEOCIRCULAR

Über Starlink 11676

Beschreibung wird geladen...

Live-Position

3D-Globus wird geladen...

Nächste Überflüge

Höhenverlauf

Altitude vs Time

uPlot chart will show altitude changes over time

Zweizeiliger Elementsatz

1 63757U 25089G 25353.21457022 .00254074 00000-0 19033-2 0 9993
2 63757 43.0006 56.8926 0002080 197.1293 162.9505 15.71092547 37370
Epoch: 19. Dez. 2025 • Age: 12 hours

Aktueller Status

Höhe 366.8 km
Geschwindigkeit 7.69 km/s
Subsatellitenpunkt -39.38°S, 8.27°E
Startdatum 29. Apr. 2025
Alter 0.6 years
Typ internet

Technische Details

Klassifizierung Payload
Masse 960.00 kg
Trockenmasse 910.00 kg
Gesamtmasse 960.00 kg
Länge 0.30 m
Durchmesser 4.10 m
Spannweite 29.00 m
Form Box + pan
Hersteller SPXS
Bus-Typ Starlink V2MD
Phasenstatus In Orbit
Besitzer/Staat SPXS/US

Große Konstellationen

Loading constellations...